TK5EP-13 Weather Reports


time (UTC)temp
F
wind
direction
speed
knots
gust
knots
rain 1hr
in
rain 24hr
in
rain mn
in
humidity
%
barometer
mb
20260508040833 55 224 10.4 14.8 0.00 0.00 0.00 48
20260508040333 54 224 10.4 14.8 0.00 0.00 0.00 51
20260508035832 53 220 9.6 11.3 0.00 0.00 0.00 58
20260508035331 54 193 7.8 9.6 0.00 0.00 0.00 67
20260508034830 54 193 6.1 9.6 0.00 0.00 0.00 61
20260508034329 54 220 7.0 8.7 0.00 0.00 0.00 59
20260508033828 53 224 7.0 7.8 0.00 0.00 0.00 60
20260508033327 54 186 6.1 7.8 0.00 0.00 0.00 65
20260508032827 54 182 7.0 7.8 0.00 0.00 0.00 62
20260508032326 55 216 6.1 7.8 0.00 0.00 0.00 55
20260508031825 55 197 5.2 7.8 0.00 0.00 0.00 51
20260508031324 56 220 6.1 7.8 0.00 0.00 0.00 41
20260508030823 56 226 6.1 7.8 0.00 0.00 0.00 40
20260508030322 56 225 6.1 7.8 0.00 0.00 0.00 39
20260508025822 56 225 6.1 7.8 0.00 0.00 0.00 38
20260508025321 56 225 7.0 7.8 0.00 0.00 0.00 38
20260508024820 56 225 6.1 6.1 0.00 0.00 0.00 37
20260508024319 56 225 5.2 6.1 0.00 0.00 0.00 36
20260508023818 56 225 5.2 6.1 0.00 0.00 0.00 36
20260508023317 56 225 5.2 7.0 0.00 0.00 0.00 36
20260508022816 56 225 6.1 7.0 0.00 0.00 0.00 36
20260508022316 56 245 6.1 6.1 0.00 0.00 0.00 36
20260508021815 56 226 5.2 6.1 0.00 0.00 0.00 35
20260508021314 56 270 5.2 5.2 0.00 0.00 0.00 35
20260508020813 56 233 5.2 5.2 0.00 0.00 0.00 35
20260508020312 56 270 5.2 6.1 0.00 0.00 0.00 35
20260508015811 56 270 5.2 6.1 0.00 0.00 0.00 35
20260508015308 57 270 6.1 6.1 0.00 0.00 0.00 35
20260508014807 56 270 5.2 6.1 0.00 0.00 0.00 34
20260508014306 56 270 5.2 5.2 0.00 0.00 0.00 36
20260508013805 56 270 4.3 5.2 0.00 0.00 0.00 37
20260508013304 57 270 5.2 7.0 0.00 0.00 0.00 36
20260508012801 57 270 6.1 7.0 0.00 0.00 0.00 36
20260508012300 56 270 6.1 7.8 0.00 0.00 0.00 38
20260508011759 57 270 7.0 7.8 0.00 0.00 0.00 40
20260508011258 57 270 6.1 7.0 0.00 0.00 0.00 41
20260508010757 57 270 7.0 7.0 0.00 0.00 0.00 42
20260508010256 56 270 5.2 7.0 0.00 0.00 0.00 38
20260508005755 56 270 6.1 7.0 0.00 0.00 0.00 37
20260508005255 57 270 6.1 7.0 0.00 0.00 0.00 38
20260508004754 56 270 7.0 7.0 0.00 0.00 0.00 40
20260508004253 56 270 5.2 7.0 0.00 0.00 0.00 39
20260508003752 56 270 6.1 7.0 0.00 0.00 0.00 39
20260508003251 56 270 7.0 7.0 0.00 0.00 0.00 39
20260508002750 56 270 6.1 7.0 0.00 0.00 0.00 41
20260508002247 56 270 5.2 6.1 0.00 0.00 0.00 42
20260508001746 56 270 5.2 6.1 0.00 0.00 0.00 43
20260508001245 56 270 6.1 6.1 0.00 0.00 0.00 47
20260508000744 56 270 6.1 6.1 0.00 0.00 0.00 54
20260508000243 56 270 5.2 6.1 0.00 0.00 0.00 49
20260507235742 56 270 5.2 6.1 0.00 0.00 0.00 50
20260507235242 56 270 5.2 5.2 0.00 0.00 0.00 53
20260507234741 56 270 5.2 5.2 0.00 0.00 0.00 52
20260507234240 56 270 5.2 6.1 0.00 0.00 0.00 55
20260507233739 56 315 6.1 7.0 0.00 0.00 0.00 58
20260507233238 56 315 6.1 7.0 0.00 0.00 0.00 59
20260507232737 56 315 5.2 5.2 0.00 0.00 0.00 54
20260507232236 56 315 3.5 6.1 0.00 0.00 0.00 52
20260507231736 56 316 5.2 7.0 0.00 0.00 0.00 54
20260507231235 56 316 6.1 7.0 0.00 0.00 0.00 54
20260507230731 56 315 5.2 6.1 0.00 0.00 0.00 54
20260507230230 56 315 4.3 4.3 0.00 0.00 0.00 54
20260507225730 56 315 4.3 5.2 0.00 0.00 0.00 55
20260507225229 56 315 4.3 5.2 0.00 0.00 0.00 56
20260507224728 56 315 2.6 5.2 0.00 0.00 0.00 56
20260507224227 56 315 3.5 5.2 0.00 0.00 0.00 55
20260507223726 56 316 4.3 5.2 0.00 0.00 0.00 55
20260507223224 56 319 4.3 5.2 0.00 0.00 0.00 55
20260507222724 56 315 4.3 5.2 0.00 0.00 0.00 55
20260507222223 56 318 3.5 5.2 0.00 0.00 0.00 54
20260507221722 56 0 5.2 5.2 0.00 0.00 0.00 54
20260507221221 56 0 5.2 5.2 0.00 0.00 0.00 54
20260507220720 56 334 4.3 4.3 0.00 0.00 0.00 54
20260507220219 56 0 2.6 3.5 0.00 0.00 0.00 55
20260507215718 56 0 2.6 4.3 0.00 0.00 0.00 55
20260507215217 56 0 3.5 4.3 0.00 0.00 0.00 55
20260507214716 56 2 2.6 5.2 0.00 0.00 0.00 55
20260507214216 56 0 4.3 5.2 0.00 0.00 0.00 56
20260507213715 56 2 4.3 5.2 0.00 0.00 0.00 57
20260507213214 55 0 3.5 4.3 0.00 0.00 0.00 59
20260507212710 55 0 2.6 4.3 0.00 0.00 0.00 61
20260507212209 55 135 2.6 4.3 0.00 0.00 0.00 62
20260507211708 55 155 3.5 5.2 0.00 0.00 0.00 62
20260507211208 55 174 3.5 6.1 0.00 0.00 0.00 62
20260507210707 55 175 4.3 6.1 0.00 0.00 0.00 62
20260507210206 55 174 2.6 3.5 0.00 0.00 0.00 62
20260507205705 56 180 3.5 3.5 0.00 0.00 0.00 62
20260507205201 56 175 0.9 3.5 0.00 0.00 0.00 64
20260507204701 57 43 1.7 3.5 0.00 0.00 0.00 64
20260507204200 57 44 2.6 3.5 0.00 0.00 0.00 63
20260507203659 57 3 1.7 4.3 0.00 0.00 0.00 62
20260507203158 56 315 3.5 5.2 0.00 0.00 0.00 61
20260507202657 56 59 2.6 5.2 0.00 0.00 0.00 60
20260507202154 56 135 4.3 5.2 0.00 0.00 0.00 56
20260507201653 55 135 4.3 6.1 0.00 0.00 0.00 54
20260507201152 56 135 6.1 7.0 0.00 0.00 0.00 52
20260507200648 56 136 6.1 7.0 0.00 0.00 0.00 55
20260507200148 56 135 5.2 7.0 0.00 0.00 0.00 55
20260507195647 56 133 4.3 6.1 0.00 0.00 0.00 54
20260507195146 56 138 5.2 6.1 0.00 0.00 0.00 52
20260507194645 56 141 4.3 6.1 0.00 0.00 0.00 52
20260507194142 56 148 5.2 6.1 0.00 0.00 0.00 51
20260507193641 56 151 5.2 6.1 0.00 0.00 0.00 51
20260507193140 56 154 4.3 5.2 0.00 0.00 0.00 51
20260507192636 56 144 4.3 5.2 0.00 0.00 0.00 51
20260507192135 56 140 3.5 5.2 0.00 0.00 0.00 50
20260507191634 56 150 3.5 5.2 0.00 0.00 0.00 50
20260507191134 56 155 4.3 6.1 0.00 0.00 0.00 49
20260507190633 56 144 3.5 6.1 0.00 0.00 0.00 49
20260507190132 56 154 5.2 7.0 0.00 0.00 0.00 48
20260507185631 56 174 6.1 7.8 0.00 0.00 0.00 46
20260507185130 56 177 6.1 7.8 0.00 0.00 0.00 47
20260507184629 56 159 6.1 7.0 0.00 0.00 0.00 49
20260507184126 56 136 2.6 5.2 0.00 0.00 0.00 51
20260507183625 56 109 2.6 5.2 0.00 0.00 0.00 50
20260507183124 56 121 2.6 5.2 0.00 0.00 0.00 52
20260507182623 57 107 1.7 4.3 0.00 0.00 0.00 53
20260507182122 56 112 1.7 4.3 0.00 0.00 0.00 53
20260507181619 57 105 1.7 4.3 0.00 0.00 0.00 53
20260507181118 57 95 3.5 5.2 0.00 0.00 0.00 53
20260507180617 57 91 3.5 4.3 0.00 0.00 0.00 51
20260507180116 58 96 3.5 4.3 0.00 0.00 0.00 50
20260507175615 58 91 3.5 3.5 0.00 0.00 0.00 49
20260507175115 58 90 3.5 4.3 0.00 0.00 0.00 50
20260507174614 59 90 2.6 3.5 0.00 0.00 0.00 50
20260507174110 61 81 0.9 1.7 0.00 0.00 0.00 49
20260507173609 61 166 0.9 2.6 0.00 0.00 0.00 49
20260507173106 62 186 0.9 3.5 0.00 0.00 0.00 50
20260507172605 63 217 1.7 5.2 0.00 0.00 0.00 54
20260507172104 63 313 2.6 5.2 0.00 0.00 0.00 52
20260507171603 64 25 0.9 5.2 0.00 0.00 0.00 56
20260507171102 63 271 0.0 6.1 0.00 0.00 0.00 61
20260507170559 62 257 2.6 6.1 0.00 0.00 0.00 64
20260507170058 62 266 4.3 7.0 0.00 0.00 0.00 64
20260507165557 62 259 3.5 7.8 0.00 0.00 0.00 67
20260507165056 61 276 3.5 10.4 0.00 0.00 0.00 67
20260507164555 60 267 6.1 10.4 0.00 0.00 0.00 68
20260507164055 61 276 6.1 10.4 0.00 0.00 0.00 66
20260507163554 61 274 6.1 11.3 0.00 0.00 0.00 66
20260507163053 60 267 7.0 11.3 0.00 0.00 0.00 64
20260507162552 60 245 5.2 10.4 0.00 0.00 0.00 64
20260507162051 60 233 7.0 11.3 0.00 0.00 0.00 65
20260507161550 60 262 8.7 12.2 0.00 0.00 0.00 63
20260507161049 60 268 8.7 12.2 0.00 0.00 0.00 62
20260507160549 60 277 7.0 13.0 0.00 0.00 0.00 59
20260507160048 59 266 7.8 13.0 0.00 0.00 0.00 56
20260507155046 58 268 9.6 13.0 0.00 0.00 0.00 56
20260507154545 59 270 7.8 13.9 0.00 0.00 0.00 54
20260507154044 60 260 9.6 13.9 0.00 0.00 0.00 53
20260507153541 60 280 7.0 13.9 0.00 0.00 0.00 52
20260507153040 59 270 7.0 13.9 0.00 0.00 0.00 56
20260507152540 59 275 8.7 13.9 0.00 0.00 0.00 51
20260507152038 59 267 8.7 13.9 0.00 0.00 0.00 53
20260507151537 59 267 7.0 12.2 0.00 0.00 0.00 56
20260507151036 59 277 5.2 12.2 0.00 0.00 0.00 57
20260507150535 59 264 7.0 13.0 0.00 0.00 0.00 58
20260507150034 58 259 8.7 14.8 0.00 0.00 0.00 58
20260507145533 58 268 9.6 14.8 0.00 0.00 0.00 59
20260507145032 59 275 8.7 13.9 0.00 0.00 0.00 59
20260507144531 59 264 8.7 13.9 0.00 0.00 0.00 56
20260507144031 59 271 7.8 13.0 0.00 0.00 0.00 57
20260507143529 58 297 8.7 13.0 0.00 0.00 0.00 57
20260507143029 59 266 7.8 13.0 0.00 0.00 0.00 59
20260507142528 59 252 7.8 14.8 0.00 0.00 0.00 59
20260507142027 59 245 8.7 14.8 0.00 0.00 0.00 59
20260507141526 60 258 7.8 13.0 0.00 0.00 0.00 59
20260507141025 60 256 8.7 13.0 0.00 0.00 0.00 55
20260507140523 59 263 6.1 11.3 0.00 0.00 0.00 54
20260507140019 59 270 6.1 12.2 0.00 0.00 0.00 57
20260507135518 60 265 7.8 13.9 0.00 0.00 0.00 57
20260507135018 60 254 8.7 13.9 0.00 0.00 0.00 57
20260507134514 60 271 8.7 16.5 0.00 0.00 0.00 59
20260507134013 60 258 9.6 16.5 0.00 0.00 0.00 58
20260507133512 60 264 7.8 14.8 0.00 0.00 0.00 55
20260507133010 60 257 9.6 14.8 0.00 0.00 0.00 57
20260507132509 60 268 8.7 14.8 0.00 0.00 0.00 55
20260507132009 60 244 8.7 13.0 0.00 0.00 0.00 54
20260507131508 59 264 7.0 13.0 0.00 0.00 0.00 54
20260507131007 59 274 7.0 13.0 0.00 0.00 0.00 58
20260507130506 59 269 7.8 15.6 0.00 0.00 0.00 59
20260507130005 59 252 9.6 15.6 0.00 0.00 0.00 62
20260507125504 59 270 8.7 15.6 0.00 0.00 0.00 61
20260507125003 59 260 7.0 13.9 0.00 0.00 0.00 60
20260507124502 59 251 7.8 13.0 0.00 0.00 0.00 62
20260507123959 59 253 7.8 13.0 0.00 0.00 0.00 62
20260507123458 58 267 9.6 13.9 0.00 0.00 0.00 63
20260507122957 59 263 9.6 13.9 0.00 0.00 0.00 64
20260507122456 58 259 7.8 14.8 0.00 0.00 0.00 65
20260507121955 58 265 7.8 14.8 0.00 0.00 0.00 64
20260507121454 58 257 7.0 13.0 0.00 0.00 0.00 66
20260507120953 58 269 7.0 14.8 0.00 0.00 0.00 67
20260507120453 58 259 9.6 15.6 0.00 0.00 0.00 67
20260507115952 58 261 9.6 15.6 0.00 0.00 0.00 67
20260507115451 58 262 9.6 15.6 0.00 0.00 0.00 67
20260507114950 59 247 7.8 12.2 0.00 0.00 0.00 67
20260507114449 59 259 8.7 13.0 0.00 0.00 0.00 66
20260507113948 59 233 7.8 13.0 0.00 0.00 0.00 65
20260507113447 59 261 7.8 13.0 0.00 0.00 0.00 61
20260507112946 60 256 7.0 11.3 0.00 0.00 0.00 61
20260507112443 59 260 6.1 11.3 0.00 0.00 0.00 60
20260507111942 59 230 7.8 12.2 0.00 0.00 0.00 60
20260507111441 59 248 6.1 11.3 0.00 0.00 0.00 61
20260507110940 59 263 7.0 13.0 0.00 0.00 0.00 62
20260507110439 60 264 6.1 13.0 0.00 0.00 0.00 62
20260507105938 60 244 6.1 12.2 0.00 0.00 0.00 60
20260507105437 60 255 5.2 13.0 0.00 0.00 0.00 60
20260507104936 60 258 5.2 9.6 0.00 0.00 0.00 60
20260507104436 60 239 3.5 7.8 0.00 0.00 0.00 60
20260507103934 59 281 4.3 10.4 0.00 0.00 0.00 60
20260507103429 59 279 5.2 10.4 0.00 0.00 0.00 63
20260507102928 59 275 6.1 10.4 0.00 0.00 0.00 61
20260507102427 59 271 5.2 11.3 0.00 0.00 0.00 62
20260507101927 60 267 7.0 11.3 0.00 0.00 0.00 62
20260507101426 60 255 7.0 10.4 0.00 0.00 0.00 62
20260507100925 59 263 5.2 9.6 0.00 0.00 0.00 62
20260507100424 60 250 7.0 9.6 0.00 0.00 0.00 63
20260507095923 60 265 7.0 10.4 0.00 0.00 0.00 64
20260507095422 59 272 5.2 10.4 0.00 0.00 0.00 62
20260507094919 60 239 5.2 11.3 0.00 0.00 0.00 63
20260507094418 60 250 8.7 11.3 0.00 0.00 0.00 62
20260507093917 60 262 7.0 9.6 0.00 0.00 0.00 60
20260507093416 60 261 5.2 8.7 0.00 0.00 0.00 59
20260507092913 61 265 7.0 8.7 0.00 0.00 0.00 59
20260507092412 61 260 6.1 8.7 0.00 0.00 0.00 56
20260507091910 63 238 4.3 8.7 0.00 0.00 0.00 53
20260507091409 64 224 2.6 6.1 0.00 0.00 0.00 51
20260507090908 62 208 2.6 5.2 0.00 0.00 0.00 49
20260507090407 62 252 2.6 6.1 0.00 0.00 0.00 47
20260507085907 62 257 4.3 6.1 0.00 0.00 0.00 46
20260507085406 63 241 4.3 6.1 0.00 0.00 0.00 48
20260507084905 64 274 2.6 5.2 0.00 0.00 0.00 48
20260507084401 66 294 2.6 4.3 0.00 0.00 0.00 45
20260507083901 66 166 1.7 6.1 0.00 0.00 0.00 46
20260507083400 65 127 1.7 5.2 0.00 0.00 0.00 45
20260507082859 64 203 1.7 5.2 0.00 0.00 0.00 44
20260507082358 64 248 2.6 4.3 0.00 0.00 0.00 46
20260507081854 64 256 1.7 5.2 0.00 0.00 0.00 44
20260507081351 64 270 2.6 5.2 0.00 0.00 0.00 43
20260507080850 64 268 1.7 5.2 0.00 0.00 0.00 41
20260507080349 64 257 2.6 5.2 0.00 0.00 0.00 43
20260507075848 66 315 3.5 5.2 0.00 0.00 0.00 39
20260507075347 65 43 3.5 6.1 0.00 0.00 0.00 42
20260507074847 66 43 2.6 6.1 0.00 0.00 0.00 40
20260507074343 66 41 1.7 4.3 0.00 0.00 0.00 42
20260507073842 64 312 0.9 4.3 0.00 0.00 0.00 44
20260507073341 65 35 2.6 5.2 0.00 0.00 0.00 42
20260507072840 64 42 2.6 5.2 0.00 0.00 0.00 42
20260507072340 65 57 2.6 5.2 0.00 0.00 0.00 43
20260507071839 66 346 1.7 5.2 0.00 0.00 0.00 45
20260507071338 66 27 1.7 5.2 0.00 0.00 0.00 46
20260507070837 66 36 1.7 5.2 0.00 0.00 0.00 45
20260507070336 67 159 1.7 2.6 0.00 0.00 0.00 44
20260507065835 65 125 0.9 2.6 0.00 0.00 0.00 45
20260507065334 64 255 0.9 5.2 0.00 0.00 0.00 49
20260507064833 63 325 0.9 5.2 0.00 0.00 0.00 49
20260507064333 64 317 1.7 3.5 0.00 0.00 0.00 46
20260507063832 65 254 0.9 2.6 0.00 0.00 0.00 45
20260507063331 63 170 0.9 3.5 0.00 0.00 0.00 47
20260507062830 62 167 0.0 3.5 0.00 0.00 0.00 50
20260507062329 61 288 0.9 2.6 0.00 0.00 0.00 42
20260507061828 62 223 0.9 4.3 0.00 0.00 0.00 44
20260507061327 62 131 2.6 4.3 0.00 0.00 0.00 43
20260507060827 62 144 2.6 4.3 0.00 0.00 0.00 45
20260507060326 61 24 0.9 3.5 0.00 0.00 0.00 47
20260507055825 60 33 1.7 3.5 0.00 0.00 0.00 47
20260507055324 59 41 2.6 3.5 0.00 0.00 0.00 48
20260507054823 59 50 2.6 3.5 0.00 0.00 0.00 48
20260507054322 59 23 2.6 3.5 0.00 0.00 0.00 50
20260507053822 58 24 2.6 3.5 0.00 0.00 0.00 54
20260507053317 56 44 3.5 3.5 0.00 0.00 0.00 57
20260507052816 53 13 1.7 2.6 0.00 0.00 0.00 61
20260507052315 51 19 1.7 3.5 0.00 0.00 0.00 63
20260507051814 51 317 2.6 4.3 0.00 0.00 0.00 65
20260507051314 51 299 2.6 5.2 0.00 0.00 0.00 65
20260507050813 51 315 3.5 6.1 0.00 0.00 0.00 66
20260507050312 51 315 3.5 6.1 0.00 0.00 0.00 66
20260507045811 51 315 4.3 5.2 0.00 0.00 0.00 66
20260507045307 50 315 4.3 6.1 0.00 0.00 0.00 67
20260507044807 51 315 5.2 7.0 0.00 0.00 0.00 67
20260507044306 51 315 5.2 7.0 0.00 0.00 0.00 67
20260507043805 50 315 6.1 7.0 0.00 0.00 0.00 67
20260507043304 50 315 6.1 7.8 0.00 0.00 0.00 67
20260507042803 50 316 7.0 8.7 0.00 0.00 0.00 68
20260507042306 50 316 6.1 9.6 0.00 0.00 0.00 68
20260507041801 50 316 7.8 9.6 0.00 0.00 0.00 67
20260507041300 50 316 7.8 10.4 0.00 0.00 0.00 67